ProjectID,Date,Electric Generation,Electric Utility Import,Facility Electric Load
,YYYY-MM-DD,kW,kW,kW
166,2013-12-02,0.0,,0.0
166,2013-12-03,21.708333333333332,,21.708333333333332
166,2013-12-04,26.583333333333332,,26.583333333333332
166,2013-12-05,1.9583333333333333,,1.9583333333333333
166,2013-12-06,0.0,,0.0
166,2013-12-07,0.0,,0.0
166,2013-12-08,0.0,,0.0
166,2013-12-09,0.0,,0.0
166,2013-12-10,0.0,,0.0
166,2013-12-11,0.0,,0.0
166,2013-12-12,25.916666666666668,,25.916666666666668
166,2013-12-13,0.3333333333333333,,0.3333333333333333
166,2013-12-14,0.0,,0.0
166,2013-12-15,0.0,,0.0
166,2013-12-16,0.0,,0.0
166,2013-12-17,0.0,,0.0
166,2013-12-18,0.0,,0.0
166,2013-12-19,0.0,,0.0
166,2013-12-20,0.0,,0.0
166,2013-12-21,2.3333333333333335,,2.3333333333333335
166,2013-12-22,4.0,,4.0
166,2013-12-23,6.25,,6.25
166,2013-12-24,0.4166666666666667,,0.4166666666666667
166,2013-12-25,0.20833333333333334,,0.20833333333333334
166,2013-12-26,0.0,,0.0
166,2013-12-27,0.0,,0.0
166,2013-12-28,13.666666666666666,,13.666666666666666
166,2013-12-29,5.75,,5.75
166,2013-12-30,10.166666666666666,,10.166666666666666
166,2013-12-31,6.75,,6.75
166,2014-01-01,18.041666666666668,,18.041666666666668
166,2014-01-02,0.6666666666666666,,0.6666666666666666
166,2014-01-03,1.125,,1.125
166,2014-01-04,12.291666666666666,,12.291666666666666
166,2014-01-05,5.291666666666667,,5.291666666666667
166,2014-01-06,10.75,,10.75
166,2014-01-07,5.833333333333333,,5.833333333333333
166,2014-01-08,0.2916666666666667,,0.2916666666666667
166,2014-01-09,1.4583333333333333,,1.4583333333333333
166,2014-01-10,0.2916666666666667,,0.2916666666666667
166,2014-01-11,4.166666666666667,,4.166666666666667
166,2014-01-12,4.541666666666667,,4.541666666666667
166,2014-01-13,22.416666666666668,,22.416666666666668
166,2014-01-14,13.083333333333334,,13.083333333333334
166,2014-01-15,28.125,,28.125
166,2014-01-16,29.958333333333332,,29.958333333333332
166,2014-01-17,33.875,,33.875
166,2014-01-18,15.833333333333334,,15.833333333333334
166,2014-01-19,4.375,,4.375
166,2014-01-20,0.4166666666666667,,0.4166666666666667
166,2014-01-21,0.6666666666666666,,0.6666666666666666
166,2014-01-22,0.7083333333333334,,0.7083333333333334
166,2014-01-23,0.4166666666666667,,0.4166666666666667
166,2014-01-24,11.791666666666666,,11.791666666666666
166,2014-01-25,5.083333333333333,,5.083333333333333
166,2014-01-26,0.5416666666666666,,0.5416666666666666
166,2014-01-27,6.125,,6.125
166,2014-01-28,7.833333333333333,,7.833333333333333
166,2014-01-29,7.416666666666667,,7.416666666666667
166,2014-01-30,29.75,,29.75
166,2014-01-31,11.791666666666666,,11.791666666666666
166,2014-02-01,9.25,,9.25
166,2014-02-02,1.3333333333333333,,1.3333333333333333
166,2014-02-03,5.916666666666667,,5.916666666666667
166,2014-02-04,10.333333333333334,,10.333333333333334
166,2014-02-05,0.0,,0.0
166,2014-02-06,0.0,,0.0
166,2014-02-07,2.9166666666666665,,2.9166666666666665
166,2014-02-08,5.791666666666667,,5.791666666666667
166,2014-02-09,0.25,,0.25
166,2014-02-10,0.25,,0.25
166,2014-02-11,0.20833333333333334,,0.20833333333333334
166,2014-02-12,0.5416666666666666,,0.5416666666666666
166,2014-02-13,0.2916666666666667,,0.2916666666666667
166,2014-02-14,0.2916666666666667,,0.2916666666666667
166,2014-02-15,1.4166666666666667,,1.4166666666666667
166,2014-02-16,1.0416666666666667,,1.0416666666666667
166,2014-02-17,6.0,,6.0
166,2014-02-18,6.5,,6.5
166,2014-02-19,22.625,,22.625
166,2014-02-20,12.916666666666666,,12.916666666666666
166,2014-02-21,17.416666666666668,,17.416666666666668
166,2014-02-22,54.791666666666664,,54.791666666666664
166,2014-02-23,60.208333333333336,,60.208333333333336
166,2014-02-24,24.333333333333332,,24.333333333333332
166,2014-02-25,41.75,,41.75
166,2014-02-26,48.791666666666664,,48.791666666666664
166,2014-02-27,12.041666666666666,,12.041666666666666
166,2014-02-28,60.875,,60.875
166,2014-03-01,34.625,,34.625
166,2014-03-02,0.5,,0.5
166,2014-03-03,1.0833333333333333,,1.0833333333333333
166,2014-03-04,0.4583333333333333,,0.4583333333333333
166,2014-03-05,0.3333333333333333,,0.3333333333333333
166,2014-03-06,2.5,,2.5
166,2014-03-07,35.541666666666664,,35.541666666666664
166,2014-03-08,10.041666666666666,,10.041666666666666
166,2014-03-09,57.791666666666664,,57.791666666666664
166,2014-03-10,42.375,,42.375
166,2014-03-11,57.708333333333336,,57.708333333333336
166,2014-03-12,0.125,,0.125
166,2014-03-13,0.8333333333333334,,0.8333333333333334
166,2014-03-14,34.208333333333336,,34.208333333333336
166,2014-03-15,28.291666666666668,,28.291666666666668
166,2014-03-16,71.45833333333333,,71.45833333333333
166,2014-03-17,76.0,,76.0
166,2014-03-18,77.08333333333333,,77.08333333333333
166,2014-03-19,21.916666666666668,,21.916666666666668
166,2014-03-20,8.791666666666666,,8.791666666666666
166,2014-03-21,61.541666666666664,,61.541666666666664
166,2014-03-22,15.416666666666666,,15.416666666666666
166,2014-03-23,46.541666666666664,,46.541666666666664
166,2014-03-24,46.583333333333336,,46.583333333333336
166,2014-03-25,77.08333333333333,,77.08333333333333
166,2014-03-26,54.083333333333336,,54.083333333333336
166,2014-03-27,38.791666666666664,,38.791666666666664
166,2014-03-28,9.083333333333334,,9.083333333333334
166,2014-03-29,15.458333333333334,,15.458333333333334
166,2014-03-30,2.125,,2.125
166,2014-03-31,47.5,,47.5
166,2014-04-01,51.125,,51.125
166,2014-04-02,87.91666666666667,,87.91666666666667
166,2014-04-03,51.125,,51.125
166,2014-04-04,13.155583333333333,,13.155583333333333
166,2014-04-05,36.82775,,36.82775
166,2014-04-06,86.66666666666667,,86.66666666666667
166,2014-04-07,25.833333333333332,,25.833333333333332
166,2014-04-08,35.583333333333336,,35.583333333333336
166,2014-04-09,86.75,,86.75
166,2014-04-10,73.1875,,73.1875
166,2014-04-11,70.54166666666667,,70.54166666666667
166,2014-04-12,74.41666666666667,,74.41666666666667
166,2014-04-13,63.416666666666664,,63.416666666666664
166,2014-04-14,33.375,,33.375
166,2014-04-15,1.7916666666666667,,1.7916666666666667
166,2014-04-16,53.95075,,53.95075
166,2014-04-17,90.29166666666667,,90.29166666666667
166,2014-04-18,66.20833333333333,,66.20833333333333
166,2014-04-19,88.15412500000001,,88.15412500000001
166,2014-04-20,93.20195833333334,,93.20195833333334
166,2014-04-21,66.55404166666666,,66.55404166666666
166,2014-04-22,18.968,,18.968
166,2014-04-23,53.363,,53.363
166,2014-04-24,92.35416666666667,,92.35416666666667
166,2014-04-25,52.125,,52.125
166,2014-04-26,20.666666666666668,,20.666666666666668
166,2014-04-27,69.66666666666667,,69.66666666666667
166,2014-04-28,80.45833333333333,,80.45833333333333
166,2014-04-29,20.25,,20.25
166,2014-04-30,19.083333333333332,,19.083333333333332
166,2014-05-01,74.25,,74.25
166,2014-05-02,51.333333333333336,,51.333333333333336
166,2014-05-03,52.125,,52.125
166,2014-05-04,67.45833333333333,,67.45833333333333
166,2014-05-05,75.875,,75.875
166,2014-05-06,92.83333333333333,,92.83333333333333
166,2014-05-07,75.375,,75.375
166,2014-05-08,71.08333333333333,,71.08333333333333
166,2014-05-09,63.0,,63.0
166,2014-05-10,75.45833333333333,,75.45833333333333
166,2014-05-11,95.70833333333333,,95.70833333333333
166,2014-05-12,61.416666666666664,,61.416666666666664
166,2014-05-13,74.04166666666667,,74.04166666666667
166,2014-05-14,60.625,,60.625
166,2014-05-15,29.75,,29.75
166,2014-05-16,28.875,,28.875
166,2014-05-17,76.08333333333333,,76.08333333333333
166,2014-05-18,82.625,,82.625
166,2014-05-19,75.08333333333333,,75.08333333333333
166,2014-05-20,51.958333333333336,,51.958333333333336
166,2014-05-21,48.791666666666664,,48.791666666666664
166,2014-05-22,57.416666666666664,,57.416666666666664
166,2014-05-23,40.375,,40.375
166,2014-05-24,98.58333333333333,,98.58333333333333
166,2014-05-25,96.45833333333333,,96.45833333333333
166,2014-05-26,80.29166666666667,,80.29166666666667
166,2014-05-27,72.5,,72.5
166,2014-05-28,63.875,,63.875
166,2014-05-29,54.625,,54.625
166,2014-05-30,77.04166666666667,,77.04166666666667
166,2014-05-31,100.08333333333333,,100.08333333333333
166,2014-06-01,93.58333333333333,,93.58333333333333
166,2014-06-02,77.5,,77.5
166,2014-06-03,60.208333333333336,,60.208333333333336
166,2014-06-04,66.20833333333333,,66.20833333333333
166,2014-06-05,53.5,,53.5
166,2014-06-06,86.95833333333333,,86.95833333333333
166,2014-06-07,96.83333333333333,,96.83333333333333
166,2014-06-08,36.208333333333336,,36.208333333333336
166,2014-06-09,74.125,,74.125
166,2014-06-10,70.625,,70.625
166,2014-06-11,48.458333333333336,,48.458333333333336
166,2014-06-12,33.208333333333336,,33.208333333333336
166,2014-06-13,57.166666666666664,,57.166666666666664
166,2014-06-14,55.958333333333336,,55.958333333333336
166,2014-06-15,96.95833333333333,,96.95833333333333
166,2014-06-16,62.625,,62.625
166,2014-06-17,73.0,,73.0
166,2014-06-18,50.583333333333336,,50.583333333333336
166,2014-06-19,95.30125,,95.30125
166,2014-06-20,80.04166666666667,,80.04166666666667
166,2014-06-21,93.375,,93.375
166,2014-06-22,97.125,,97.125
166,2014-06-23,69.91666666666667,,69.91666666666667
166,2014-06-24,61.708333333333336,,61.708333333333336
166,2014-06-25,35.416666666666664,,35.416666666666664
166,2014-06-26,78.08333333333333,,78.08333333333333
166,2014-06-27,88.08333333333333,,88.08333333333333
166,2014-06-28,65.75,,65.75
166,2014-06-29,65.33333333333333,,65.33333333333333
166,2014-06-30,85.375,,85.375
166,2014-07-01,82.66666666666667,,82.66666666666667
166,2014-07-02,69.70833333333333,,69.70833333333333
166,2014-07-03,40.125,,40.125
166,2014-07-04,86.41666666666667,,86.41666666666667
166,2014-07-05,97.29166666666667,,97.29166666666667
166,2014-07-06,93.08333333333333,,93.08333333333333
166,2014-07-07,42.666666666666664,,42.666666666666664
166,2014-07-08,46.125,,46.125
166,2014-07-09,42.833333333333336,,42.833333333333336
166,2014-07-10,87.41666666666667,,87.41666666666667
166,2014-07-11,92.91666666666667,,92.91666666666667
166,2014-07-12,88.125,,88.125
166,2014-07-13,36.75,,36.75
166,2014-07-14,61.041666666666664,,61.041666666666664
166,2014-07-15,75.83333333333333,,75.83333333333333
166,2014-07-16,75.16666666666667,,75.16666666666667
166,2014-07-17,81.5,,81.5
166,2014-07-18,76.875,,76.875
166,2014-07-19,26.125,,26.125
166,2014-07-20,45.791666666666664,,45.791666666666664
166,2014-07-21,82.70833333333333,,82.70833333333333
166,2014-07-22,88.54166666666667,,88.54166666666667
166,2014-07-23,35.666666666666664,,35.666666666666664
166,2014-07-24,89.75,,89.75
166,2014-07-25,87.20833333333333,,87.20833333333333
166,2014-07-26,69.33333333333333,,69.33333333333333
166,2014-07-27,74.0,,74.0
166,2014-07-28,19.875,,19.875
166,2014-07-29,47.708333333333336,,47.708333333333336
166,2014-07-30,60.416666666666664,,60.416666666666664
166,2014-07-31,76.70833333333333,,76.70833333333333
166,2014-08-01,85.45833333333333,,85.45833333333333
166,2014-08-02,70.875,,70.875
166,2014-08-03,25.375,,25.375
166,2014-08-04,79.08333333333333,,79.08333333333333
166,2014-08-05,34.708333333333336,,34.708333333333336
166,2014-08-06,69.5,,69.5
166,2014-08-07,78.375,,78.375
166,2014-08-08,78.16666666666667,,78.16666666666667
166,2014-08-09,85.66666666666667,,85.66666666666667
166,2014-08-10,83.33333333333333,,83.33333333333333
166,2014-08-11,61.291666666666664,,61.291666666666664
166,2014-08-12,41.041666666666664,,41.041666666666664
166,2014-08-13,61.583333333333336,,61.583333333333336
166,2014-08-14,53.291666666666664,,53.291666666666664
166,2014-08-15,50.791666666666664,,50.791666666666664
166,2014-08-16,31.875,,31.875
166,2014-08-17,75.33333333333333,,75.33333333333333
166,2014-08-18,82.0,,82.0
166,2014-08-19,74.95833333333333,,74.95833333333333
166,2014-08-20,41.041666666666664,,41.041666666666664
166,2014-08-21,68.0,,68.0
166,2014-08-22,61.0,,61.0
166,2014-08-23,53.0,,53.0
166,2014-08-24,70.33333333333333,,70.33333333333333
166,2014-08-25,66.75,,66.75
166,2014-08-26,77.41666666666667,,77.41666666666667
166,2014-08-27,61.125,,61.125
166,2014-08-28,79.25,,79.25
166,2014-08-29,72.16666666666667,,72.16666666666667
166,2014-08-30,65.75,,65.75
166,2014-08-31,27.25,,27.25
166,2014-09-01,63.375,,63.375
166,2014-09-02,26.416666666666668,,26.416666666666668
166,2014-09-03,68.70833333333333,,68.70833333333333
166,2014-09-04,74.625,,74.625
166,2014-09-05,60.625,,60.625
166,2014-09-06,29.166666666666668,,29.166666666666668
166,2014-09-07,81.04166666666667,,81.04166666666667
166,2014-09-08,76.25,,76.25
166,2014-09-09,50.791666666666664,,50.791666666666664
166,2014-09-10,43.125,,43.125
166,2014-09-11,24.041666666666668,,24.041666666666668
166,2014-09-12,28.0,,28.0
166,2014-09-13,26.708333333333332,,26.708333333333332
166,2014-09-14,51.958333333333336,,51.958333333333336
166,2014-09-15,48.083333333333336,,48.083333333333336
166,2014-09-16,65.5,,65.5
166,2014-09-17,64.04166666666667,,64.04166666666667
166,2014-09-18,27.791666666666668,,27.791666666666668
166,2014-09-19,75.95833333333333,,75.95833333333333
166,2014-09-20,66.95833333333333,,66.95833333333333
166,2014-09-21,55.0,,55.0
166,2014-09-22,26.625,,26.625
166,2014-09-23,72.54166666666667,,72.54166666666667
166,2014-09-24,70.08333333333333,,70.08333333333333
166,2014-09-25,70.04166666666667,,70.04166666666667
166,2014-09-26,68.66666666666667,,68.66666666666667
166,2014-09-27,67.54166666666667,,67.54166666666667
166,2014-09-28,61.083333333333336,,61.083333333333336
166,2014-09-29,64.29166666666667,,64.29166666666667
166,2014-09-30,47.875,,47.875
166,2014-10-01,26.416666666666668,,26.416666666666668
166,2014-10-02,59.25,,59.25
166,2014-10-03,47.791666666666664,,47.791666666666664
166,2014-10-04,25.625,,25.625
166,2014-10-05,12.541666666666666,,12.541666666666666
166,2014-10-06,42.875,,42.875
166,2014-10-07,47.5,,47.5
166,2014-10-08,41.18333333333333,,41.18333333333333
166,2014-10-09,62.5,,62.5
166,2014-10-10,43.75,,43.75
166,2014-10-11,45.875,,45.875
166,2014-10-12,63.083333333333336,,63.083333333333336
166,2014-10-13,25.208333333333332,,25.208333333333332
166,2014-10-14,38.458333333333336,,38.458333333333336
166,2014-10-15,10.916666666666666,,10.916666666666666
166,2014-10-16,32.208333333333336,,32.208333333333336
166,2014-10-17,18.583333333333332,,18.583333333333332
166,2014-10-18,11.958333333333334,,11.958333333333334
166,2014-10-19,37.94441666666667,,37.94441666666667
166,2014-10-20,22.333333333333332,,22.333333333333332
166,2014-10-21,9.666666666666666,,9.666666666666666
166,2014-10-22,13.208333333333334,,13.208333333333334
166,2014-10-23,57.25,,57.25
166,2014-10-24,48.166666666666664,,48.166666666666664
166,2014-10-25,34.333333333333336,,34.333333333333336
166,2014-10-26,10.208333333333334,,10.208333333333334
166,2014-10-27,48.5,,48.5
166,2014-10-28,27.833333333333332,,27.833333333333332
166,2014-10-29,20.083333333333332,,20.083333333333332
166,2014-10-30,27.375,,27.375
166,2014-10-31,11.875,,11.875
166,2014-11-01,8.25,,8.25
166,2014-11-02,54.375,,54.375
166,2014-11-03,39.5,,39.5
166,2014-11-04,18.416666666666668,,18.416666666666668
166,2014-11-05,36.458333333333336,,36.458333333333336
166,2014-11-06,9.416666666666666,,9.416666666666666
166,2014-11-07,14.312,,14.312
166,2014-11-08,14.001249999999999,,14.001249999999999
166,2014-11-09,16.416666666666668,,16.416666666666668
166,2014-11-10,36.541666666666664,,36.541666666666664
166,2014-11-11,41.208333333333336,,41.208333333333336
166,2014-11-12,18.75,,18.75
166,2014-11-13,12.041666666666666,,12.041666666666666
166,2014-11-14,20.541666666666668,,20.541666666666668
166,2014-11-15,16.208333333333332,,16.208333333333332
166,2014-11-16,22.708333333333332,,22.708333333333332
166,2014-11-17,0.25,,0.25
166,2014-11-18,3.8333333333333335,,3.8333333333333335
166,2014-11-19,2.1666666666666665,,2.1666666666666665
166,2014-11-20,0.041666666666666664,,0.041666666666666664
166,2014-11-21,0.20833333333333334,,0.20833333333333334
166,2014-11-22,0.0,,0.0
166,2014-11-23,10.875,,10.875
166,2014-11-24,12.708333333333334,,12.708333333333334
166,2014-11-25,1.25,,1.25
166,2014-11-26,3.5416666666666665,,3.5416666666666665
166,2014-11-27,16.791666666666668,,16.791666666666668
166,2014-11-28,0.16666666666666666,,0.16666666666666666
166,2014-11-29,0.20833333333333334,,0.20833333333333334
166,2014-11-30,9.416666666666666,,9.416666666666666
166,2014-12-01,12.782333333333334,,12.782333333333334
166,2014-12-02,22.25,,22.25
166,2014-12-03,2.875,,2.875
166,2014-12-04,32.208333333333336,,32.208333333333336
166,2014-12-05,10.916666666666666,,10.916666666666666
166,2014-12-06,12.0,,12.0
166,2014-12-07,36.541666666666664,,36.541666666666664
166,2014-12-08,16.5,,16.5
166,2014-12-09,24.558875,,24.558875
166,2014-12-10,3.0,,3.0
166,2014-12-11,0.0,,0.0
166,2014-12-12,0.0,,0.0
166,2014-12-13,0.0,,0.0
166,2014-12-14,0.0,,0.0
166,2014-12-15,5.5,,5.5
166,2014-12-16,3.625,,3.625
166,2014-12-17,5.875,,5.875
166,2014-12-18,2.5,,2.5
166,2014-12-19,5.291666666666667,,5.291666666666667
166,2014-12-20,24.041666666666668,,24.041666666666668
166,2014-12-21,20.416666666666668,,20.416666666666668
166,2014-12-22,28.375,,28.375
166,2014-12-23,9.208333333333334,,9.208333333333334
166,2014-12-24,7.791666666666667,,7.791666666666667
166,2014-12-25,11.708333333333334,,11.708333333333334
166,2014-12-26,26.875,,26.875
166,2014-12-27,18.5,,18.5
166,2014-12-28,11.708333333333334,,11.708333333333334
166,2014-12-29,11.125,,11.125
166,2014-12-30,20.0,,20.0
166,2014-12-31,28.416666666666668,,28.416666666666668
166,2015-01-01,1.7916666666666667,,1.7916666666666667
166,2015-01-02,26.75,,26.75
166,2015-01-03,3.5416666666666665,,3.5416666666666665
166,2015-01-04,3.25,,3.25
166,2015-01-05,23.625,,23.625
166,2015-01-06,9.041666666666666,,9.041666666666666
166,2015-01-07,1.2916666666666667,,1.2916666666666667
166,2015-01-08,10.916666666666666,,10.916666666666666
166,2015-01-09,0.0,,0.0
166,2015-01-10,0.0,,0.0
166,2015-01-11,0.125,,0.125
166,2015-01-12,0.0,,0.0
166,2015-01-13,0.0,,0.0
166,2015-01-14,0.0,,0.0
166,2015-01-15,0.0,,0.0
166,2015-01-16,1.1666666666666667,,1.1666666666666667
166,2015-01-17,2.9583333333333335,,2.9583333333333335
166,2015-01-18,4.666666666666667,,4.666666666666667
166,2015-01-19,6.166666666666667,,6.166666666666667
166,2015-01-20,12.958333333333334,,12.958333333333334
166,2015-01-21,16.25,,16.25
166,2015-01-22,14.75,,14.75
166,2015-01-23,10.833333333333334,,10.833333333333334
166,2015-01-24,4.041666666666667,,4.041666666666667
166,2015-01-25,13.958333333333334,,13.958333333333334
166,2015-01-26,9.083333333333334,,9.083333333333334
166,2015-01-27,0.3333333333333333,,0.3333333333333333
166,2015-01-28,2.1666666666666665,,2.1666666666666665
166,2015-01-29,0.375,,0.375
166,2015-01-30,0.125,,0.125
166,2015-01-31,0.3333333333333333,,0.3333333333333333
166,2015-02-01,0.08333333333333333,,0.08333333333333333
166,2015-02-02,0.0,,0.0
166,2015-02-03,0.0,,0.0
166,2015-02-04,0.0,,0.0
166,2015-02-05,0.0,,0.0
166,2015-02-06,0.0,,0.0
166,2015-02-07,0.0,,0.0
166,2015-02-08,0.0,,0.0
166,2015-02-09,0.0,,0.0
166,2015-02-10,0.0,,0.0
166,2015-02-11,0.0,,0.0
166,2015-02-12,0.0,,0.0
166,2015-02-13,0.0,,0.0
166,2015-02-14,0.0,,0.0
166,2015-02-15,0.0,,0.0
166,2015-02-16,0.0,,0.0
166,2015-02-17,0.0,,0.0
166,2015-02-18,0.0,,0.0
166,2015-02-19,0.0,,0.0
166,2015-02-20,0.0,,0.0
166,2015-02-21,0.0,,0.0
166,2015-02-22,0.0,,0.0
166,2015-02-23,0.0,,0.0
166,2015-02-24,0.0,,0.0
166,2015-02-25,0.0,,0.0
166,2015-02-26,0.0,,0.0
166,2015-02-27,0.0,,0.0
166,2015-02-28,0.0,,0.0
166,2015-03-01,0.0,,0.0
166,2015-03-02,0.0,,0.0
166,2015-03-03,0.0,,0.0
166,2015-03-04,0.0,,0.0
166,2015-03-05,0.0,,0.0
166,2015-03-06,0.0,,0.0
166,2015-03-07,0.0,,0.0
166,2015-03-08,0.0,,0.0
166,2015-03-09,0.0,,0.0
166,2015-03-10,0.0,,0.0
166,2015-03-11,1.7083333333333333,,1.7083333333333333
166,2015-03-12,8.791666666666666,,8.791666666666666
166,2015-03-13,14.0,,14.0
166,2015-03-14,5.875,,5.875
166,2015-03-15,15.916666666666666,,15.916666666666666
166,2015-03-16,29.208333333333332,,29.208333333333332
166,2015-03-17,47.666666666666664,,47.666666666666664
166,2015-03-18,49.041666666666664,,49.041666666666664
166,2015-03-19,65.29166666666667,,65.29166666666667
166,2015-03-20,39.75,,39.75
166,2015-03-21,16.541666666666668,,16.541666666666668
166,2015-03-22,59.625,,59.625
166,2015-03-23,78.625,,78.625
166,2015-03-24,75.20833333333333,,75.20833333333333
166,2015-03-25,20.958333333333332,,20.958333333333332
166,2015-03-26,2.4583333333333335,,2.4583333333333335
166,2015-03-27,2.5416666666666665,,2.5416666666666665
166,2015-03-28,41.083333333333336,,41.083333333333336
166,2015-03-29,83.45833333333333,,83.45833333333333
166,2015-03-30,24.333333333333332,,24.333333333333332
166,2015-03-31,33.833333333333336,,33.833333333333336
166,2015-04-01,85.41666666666667,,85.41666666666667
166,2015-04-02,55.75,,55.75
166,2015-04-03,36.083333333333336,,36.083333333333336
166,2015-04-04,67.75,,67.75
166,2015-04-05,15.25,,15.25
166,2015-04-06,52.083333333333336,,52.083333333333336
166,2015-04-07,49.208333333333336,,49.208333333333336
166,2015-04-08,8.541666666666666,,8.541666666666666
166,2015-04-09,32.666666666666664,,32.666666666666664
166,2015-04-10,44.5,,44.5
166,2015-04-11,45.0,,45.0
166,2015-04-12,87.70833333333333,,87.70833333333333
166,2015-04-13,68.41666666666667,,68.41666666666667
166,2015-04-14,68.75,,68.75
166,2015-04-15,86.625,,86.625
166,2015-04-16,63.5,,63.5
166,2015-04-17,62.375,,62.375
166,2015-04-18,89.75,,89.75
166,2015-04-19,83.54166666666667,,83.54166666666667
166,2015-04-20,27.583333333333332,,27.583333333333332
166,2015-04-21,56.791666666666664,,56.791666666666664
166,2015-04-22,54.333333333333336,,54.333333333333336
166,2015-04-23,26.458333333333332,,26.458333333333332
166,2015-04-24,64.25,,64.25
166,2015-04-25,95.08333333333333,,95.08333333333333
166,2015-04-26,68.375,,68.375
166,2015-04-27,33.333333333333336,,33.333333333333336
166,2015-04-28,93.79166666666667,,93.79166666666667
166,2015-04-29,91.79166666666667,,91.79166666666667
166,2015-04-30,86.70833333333333,,86.70833333333333
166,2015-05-01,88.25,,88.25
166,2015-05-02,90.45833333333333,,90.45833333333333
166,2015-05-03,89.625,,89.625
166,2015-05-04,56.333333333333336,,56.333333333333336
166,2015-05-05,44.791666666666664,,44.791666666666664
166,2015-05-06,77.70833333333333,,77.70833333333333
166,2015-05-07,87.375,,87.375
166,2015-05-08,79.41666666666667,,79.41666666666667
166,2015-05-09,78.29166666666667,,78.29166666666667
166,2015-05-10,65.70833333333333,,65.70833333333333
166,2015-05-11,74.875,,74.875
166,2015-05-12,56.541666666666664,,56.541666666666664
166,2015-05-13,32.083333333333336,,32.083333333333336
166,2015-05-14,93.875,,93.875
166,2015-05-15,43.75,,43.75
166,2015-05-16,58.041666666666664,,58.041666666666664
166,2015-05-17,66.875,,66.875
166,2015-05-18,64.33333333333333,,64.33333333333333
166,2015-05-19,55.541666666666664,,55.541666666666664
166,2015-05-20,90.45833333333333,,90.45833333333333
166,2015-05-21,87.29166666666667,,87.29166666666667
166,2015-05-22,76.08333333333333,,76.08333333333333
166,2015-05-23,100.41666666666667,,100.41666666666667
166,2015-05-24,82.625,,82.625
166,2015-05-25,52.958333333333336,,52.958333333333336
166,2015-05-26,74.58333333333333,,74.58333333333333
166,2015-05-27,65.79166666666667,,65.79166666666667
166,2015-05-28,83.58333333333333,,83.58333333333333
166,2015-05-29,78.25,,78.25
166,2015-05-30,75.58333333333333,,75.58333333333333
166,2015-05-31,9.041666666666666,,9.041666666666666
166,2015-06-01,18.875,,18.875
166,2015-06-02,56.583333333333336,,56.583333333333336
166,2015-06-03,66.16666666666667,,66.16666666666667
166,2015-06-04,39.125,,39.125
166,2015-06-05,50.291666666666664,,50.291666666666664
166,2015-06-06,65.625,,65.625